Weather History for KPGD - June, 2013

Change the Weather History Date:

Thursday, June 27, 2013

  Actual Average Record
Temperature  
Mean Temperature 82 °F -  
Max Temperature 93 °F 88 °F 96 °F (2007)
Min Temperature 71 °F 70 °F 70 °F (2000)
Cooling Degree Days 17    
Growing Degree Days 32 (Base 50)    
Moisture  
Dew Point 72 °F    
Average Humidity 81    
Maximum Humidity 97    
Minimum Humidity 39    
Precipitation  
Precipitation 0.22 in - - ()
Sea Level Pressure  
Sea Level Pressure 30.03 in    
Wind  
Wind Speed 4 mph (East)    
Max Wind Speed 20 mph    
Max Gust Speed 29 mph    
Visibility 9 miles    
Events Rain , Thunderstorm    
Averages and records for this station are not official NWS values.
T = Trace of Precipitation, MM = Missing Value Source: NWS Daily Summary

Daily Weather History Graph

Daily Weather History Graph

Search for Another Location

Airport or City:

Trip Planner

Search our weather history database for the weather conditions in past years. The results will help you decide how hot, cold, wet, or windy it might be!

Date:

Astronomy

Jun. 27, 2013 Rise Set
Actual Time 6:36 AM EDT 8:25 PM EDT
Civil Twilight 6:10 AM EDT 8:52 PM EDT
Nautical Twilight 5:38 AM EDT 9:23 PM EDT
Astronomical Twilight 5:04 AM EDT 9:57 PM EDT
Moon 11:53 PM EDT (6/27) 11:08 AM EDT (6/27)
Length of Visible Light 14h 42m
Length of Day
13h 49m
Waning Gibbous, 76% of the Moon is Illuminated
Jun 27
Waning Gibbous
Jun 30
Last Quarter
Jul 8
New
Jul 15
First Quarter
Jul 22
Full

Hourly Weather History & Observations

Time (EDT) Temp. Heat Index Dew Point Humidity Pressure Visibility Wind Dir Wind Speed Gust Speed Precip Events Conditions
12:53 AM 73.0 °F - 72.0 °F 96% 30.06 in 10.0 mi ENE 3.5 mph - N/A   Clear
1:53 AM 73.0 °F - 72.0 °F 96% 30.05 in 10.0 mi ESE 5.8 mph - N/A   Clear
2:53 AM 72.0 °F - 71.1 °F 97% 30.06 in 10.0 mi NNE 5.8 mph - N/A   Clear
3:53 AM 72.0 °F - 71.1 °F 97% 30.05 in 10.0 mi ENE 3.5 mph - N/A   Clear
4:53 AM 72.0 °F - 71.1 °F 97% 30.04 in 10.0 mi Calm Calm - 0.01 in   Clear
5:53 AM 71.1 °F - 70.0 °F 96% 30.05 in 10.0 mi Calm Calm - N/A   Clear
6:53 AM 72.0 °F - 71.1 °F 97% 30.06 in 10.0 mi NNE 3.5 mph - N/A   Clear
7:53 AM 75.0 °F - 73.0 °F 94% 30.07 in 10.0 mi ENE 3.5 mph - N/A   Clear
8:53 AM 80.1 °F 84.5 °F 73.9 °F 81% 30.08 in 10.0 mi ENE 3.5 mph - N/A   Clear
9:53 AM 84.0 °F 91.2 °F 73.9 °F 72% 30.08 in 10.0 mi South 3.5 mph - N/A   Clear
10:53 AM 84.9 °F 90.7 °F 72.0 °F 65% 30.07 in 10.0 mi Calm Calm - N/A   Clear
11:53 AM 87.1 °F 93.6 °F 72.0 °F 61% 30.06 in 10.0 mi Calm Calm - N/A   Scattered Clouds
12:53 PM 87.1 °F 93.6 °F 72.0 °F 61% 30.05 in 10.0 mi WNW 3.5 mph - N/A   Mostly Cloudy
1:53 PM 91.0 °F 97.6 °F 71.1 °F 52% 30.04 in 10.0 mi Calm Calm - N/A   Scattered Clouds
2:53 PM 91.9 °F 95.9 °F 68.0 °F 45% 30.01 in 10.0 mi WNW 6.9 mph - N/A   Clear
3:53 PM 93.0 °F 95.0 °F 64.9 °F 39% 30.00 in 10.0 mi Variable 3.5 mph - N/A   Clear
4:53 PM 91.9 °F 97.4 °F 70.0 °F 48% 29.99 in 10.0 mi SW 11.5 mph - N/A   Clear
5:53 PM 80.1 °F 83.6 °F 71.1 °F 74% 30.01 in 10.0 mi SSE 19.6 mph 28.8 mph N/A   Mostly Cloudy
5:58 PM 78.8 °F - 71.6 °F 78% 30.01 in 10.0 mi SSE 15.0 mph 28.8 mph N/A Thunderstorm Thunderstorm
6:53 PM 73.9 °F - 72.0 °F 93% 30.01 in 1.8 mi North 3.5 mph - 0.16 in Rain , Thunderstorm Rain
6:57 PM 73.4 °F - 71.6 °F 94% 30.00 in 3.0 mi Calm Calm - 0.01 in Rain , Thunderstorm Light Rain
7:25 PM 75.2 °F - 73.4 °F 94% 30.00 in 10.0 mi North 8.1 mph - 0.05 in   Scattered Clouds
7:53 PM 77.0 °F - 73.0 °F 88% 29.98 in 10.0 mi SSW 3.5 mph - 0.05 in   Scattered Clouds
8:53 PM 77.0 °F - 73.0 °F 88% 30.00 in 10.0 mi SSW 3.5 mph - N/A   Clear
9:53 PM 75.0 °F - 73.0 °F 94% 30.01 in 10.0 mi ESE 5.8 mph - N/A   Clear
10:53 PM 75.0 °F - 73.0 °F 94% 30.01 in 10.0 mi Calm Calm - N/A   Clear
11:53 PM 75.0 °F - 73.0 °F 94% 30.02 in 10.0 mi SE 3.5 mph - N/A   Clear